Theta_e
289 291 288 288 287 288 287 290 288 288 289 293 294 295 296 298 297 296 295 293 293 293 294 294 294 294 295 295 295 295 294 294 295 296 295 293 293 294 294 294 293 293 292 292
288 289 291 289 291 289 289 289 289 290 289 296 296 297 296 295 296 294 292 292 292 292 293 293 293 293 293 293 294 294 293 292 293 293 292 293 293 293 292 291 291 291 290 290
286 286 286 286 288 291 290 291 291 288 293 294 295 293 293 294 295 292 291 291 292 292 292 292 293 293 293 293 294 293 292 291 291 291 290 290 289 289 289 289 289 288 288 288
285 285 282 292 292 292 291 292 293 293 294 294 293 291 292 296 294 291 291 291 292 292 292 292 293 292 292 291 291 290 289 288 288 288 287 288 288 288 288 288 287 287 287 287
285 283 287 290 289 290 290 289 293 292 293 293 294 293 290 291 293 292 292 292 291 292 292 291 290 290 289 288 288 287 286 286 287 287 287 287 286 286 287 286 285 285 285 284
284 283 281 291 292 293 292 286 293 294 293 293 294 292 289 290 291 291 291 291 289 289 289 289 288 288 287 286 286 285 285 286 286 286 286 285 286 285 285 285 283 283 283 284
283 285 288 293 292 293 285 289 294 294 294 294 292 291 290 290 289 289 288 287 288 288 286 286 287 287 285 284 284 285 286 286 286 286 285 285 285 285 284 283 282 282 281 282
284 284 283 294 292 290 294 294 296 294 292 290 289 289 288 287 286 286 286 286 286 285 284 285 285 285 284 283 285 286 285 285 284 285 284 284 283 283 282 282 280 280 280 280
290 291 295 295 293 294 296 297 295 293 291 290 288 287 286 285 285 285 285 285 285 284 283 284 285 285 284 284 284 284 284 283 283 283 282 282 281 280 280 280 279 278 278 278
291 294 294 295 295 297 297 297 295 293 291 290 287 286 285 284 284 284 284 283 284 282 282 283 284 284 284 284 283 282 281 281 281 280 280 280 280 279 279 278 278 277 277 277
291 293 293 295 296 297 294 293 292 292 291 288 286 285 284 283 283 283 283 282 282 282 282 282 283 282 283 282 281 280 279 279 279 279 278 278 278 278 278 278 278 276 276 276
292 297 298 296 296 295 292 291 291 288 286 287 286 284 284 282 282 282 281 281 282 282 282 281 281 281 281 280 279 278 277 277 277 277 277 277 277 277 278 277 276 276 277 277
297 296 293 294 294 294 292 290 289 287 286 284 284 284 283 281 281 281 281 282 282 281 281 281 280 280 279 279 278 277 276 276 276 276 276 276 275 275 274 276 277 276 276 276
295 294 291 293 291 290 288 287 287 285 285 284 283 283 282 280 281 281 281 282 282 281 279 279 279 278 279 279 277 276 276 275 276 276 276 275 274 274 274 273 273 274 276 275
293 293 295 289 288 286 285 285 283 282 282 282 282 281 281 280 280 281 282 281 280 279 278 278 278 277 278 278 276 275 275 275 275 276 275 274 275 274 274 274 273 274 274 275
288 288 288 287 285 284 284 284 282 281 281 280 280 280 280 281 281 281 281 280 278 277 277 276 277 277 277 277 275 275 275 274 274 274 274 274 274 273 273 273 273 273 273 273
285 283 284 283 284 283 284 284 282 282 281 280 279 280 280 280 280 280 279 279 278 277 277 277 277 277 276 275 274 274 275 274 272 273 273 273 273 273 273 272 272 272 272 273
294 291 289 287 284 283 282 282 282 281 280 280 280 280 279 279 279 278 277 278 277 276 277 277 277 276 275 274 274 274 273 273 272 272 273 272 272 273 272 272 271 271 272 272
290 288 287 286 285 283 282 281 281 280 280 280 279 278 279 279 279 279 278 275 274 274 275 276 275 274 273 273 272 273 272 271 272 272 272 271 271 271 271 271 270 271 271 270
286 286 285 284 284 282 281 281 280 280 280 280 277 276 276 276 275 275 276 275 275 275 276 274 274 273 272 271 270 271 271 271 270 270 270 270 270 270 270 269 269 269 270 270
284 284 283 283 282 282 280 280 280 279 279 277 277 275 276 275 274 275 275 274 274 275 275 273 272 271 271 269 270 270 270 270 269 269 269 269 269 269 269 269 269 268 269 269
284 282 281 280 279 278 280 281 280 277 276 275 274 273 273 274 273 273 273 274 274 273 272 272 271 267 268 267 269 269 268 268 268 269 269 268 268 268 268 268 267 267 268 268
282 281 279 277 277 278 278 277 276 276 275 275 274 275 276 276 276 274 272 272 273 270 271 270 266 265 264 268 268 267 267 267 267 268 268 268 267 267 267 266 266 266 266 266
281 280 278 278 277 276 275 276 278 277 276 275 275 275 276 274 273 273 272 268 266 268 268 267 265 263 262 266 266 266 266 266 267 267 267 265 267 266 266 265 265 265 265 265
279 278 277 277 277 278 278 278 277 277 277 277 276 276 276 275 274 271 271 269 267 268 267 262 262 262 265 265 265 264 265 266 265 265 265 265 265 264 265 264 264 263 263 264
279 279 279 280 279 280 279 279 278 278 276 275 275 274 273 272 271 270 269 267 267 265 266 266 264 264 264 264 264 263 264 264 264 264 263 263 263 263 262 262 262 263 263 263
280 279 279 279 280 280 280 279 278 276 276 275 273 272 271 271 269 268 266 267 266 265 265 265 264 263 263 263 263 263 263 263 261 261 262 262 262 261 261 261 262 262 262 262
Wind_Speed
1 2 2 1 4 8 7 5 7 3 9 9 8 8 6 4 2 4 6 8 9 10 11 13 15 14 13 11 9 7 6 4 2 1 1 2 4 6 8 9 9 11 12 12
2 3 2 4 7 8 10 5 11 9 16 5 1 6 7 9 1 5 8 10 12 14 15 15 14 13 11 10 9 7 6 5 5 4 4 5 7 9 9 10 10 10 10 10
2 3 2 5 9 10 5 4 5 7 5 2 5 8 9 8 5 9 11 13 14 15 14 13 12 11 11 10 9 9 9 10 9 8 7 8 9 9 9 9 10 11 11 12
2 1 2 2 2 2 5 5 10 7 7 4 4 7 8 6 9 11 13 14 15 14 14 13 13 13 12 11 11 11 11 10 9 9 9 9 9 9 10 10 11 11 11 12
4 4 5 3 2 4 5 1 3 3 1 4 9 6 10 8 8 11 14 14 14 13 13 14 13 12 13 12 11 10 10 9 9 9 8 8 9 10 10 10 11 12 12 14
3 3 5 3 2 2 3 2 3 1 1 6 6 3 4 6 13 16 16 15 15 15 15 14 12 12 12 10 10 10 9 8 7 8 9 10 10 11 10 12 13 12 13 14
3 2 7 6 5 2 2 2 4 3 3 7 3 3 14 14 15 16 15 16 16 15 14 13 11 10 11 9 10 8 8 7 8 8 9 10 11 11 12 13 13 14 14 14
3 2 8 7 6 6 3 3 5 4 4 11 15 16 16 16 16 16 17 15 15 15 13 11 10 9 10 10 8 8 7 7 8 9 9 9 13 12 13 13 13 14 14 12
9 6 0 5 2 2 5 5 5 7 10 17 18 18 17 16 16 15 15 13 12 12 12 10 10 10 10 8 8 8 8 9 10 11 11 11 12 13 11 12 11 12 11 12
3 4 7 6 4 5 4 4 8 12 17 18 21 18 18 16 14 13 12 12 10 11 11 11 10 10 9 9 9 9 10 10 10 11 12 11 9 9 10 10 11 11 12 12
4 4 2 7 8 10 8 12 16 14 16 19 21 18 17 15 14 12 12 10 9 10 10 10 9 9 9 10 10 10 9 10 10 9 11 10 9 9 9 10 12 13 12 12
6 7 4 2 12 13 16 16 17 21 17 15 16 19 18 14 12 11 11 10 10 11 10 8 8 8 9 9 10 10 9 8 8 9 9 8 9 9 11 14 19 17 19 14
4 6 5 9 11 9 16 16 16 17 19 21 17 17 17 15 11 13 11 11 11 10 9 7 7 7 8 9 10 10 10 10 8 9 8 9 10 11 11 12 16 14 16 18
10 14 7 9 7 13 18 19 20 18 17 17 18 17 17 15 13 12 11 11 10 9 8 7 6 7 7 8 10 11 10 9 8 8 8 9 10 10 10 11 12 11 13 15
10 4 7 16 18 18 18 20 21 18 18 17 15 16 15 15 13 12 11 10 9 9 8 7 7 8 9 9 11 10 9 8 9 8 8 9 8 10 9 10 11 11 11 12
11 13 16 19 20 19 20 19 22 18 17 16 16 15 14 14 13 12 10 8 7 7 7 5 5 7 9 9 11 8 8 10 10 8 8 8 8 9 9 10 10 10 11 12
19 12 15 17 18 20 19 16 18 19 18 17 17 16 15 14 13 11 10 9 8 7 6 6 6 7 9 9 10 7 7 8 10 7 7 8 8 9 9 9 10 10 11 12
4 11 16 22 23 20 19 19 18 19 17 18 17 15 13 10 12 11 9 8 7 7 7 6 6 8 8 9 9 7 7 7 7 7 7 8 8 8 9 10 11 11 12 12
15 18 18 19 19 19 19 18 19 18 17 16 14 13 13 11 12 11 10 7 5 5 6 6 7 7 7 9 10 6 7 7 7 7 7 9 8 9 9 10 11 11 12 12
18 19 20 20 19 21 20 18 20 18 16 16 13 12 11 8 8 8 9 8 6 4 4 6 6 7 8 9 10 6 7 7 7 7 7 8 8 9 9 11 11 11 11 11
20 21 23 21 19 18 17 17 17 17 16 13 13 12 10 9 7 7 7 5 5 5 5 5 6 6 6 8 6 6 6 7 7 7 7 8 9 9 10 10 11 11 11 11
19 20 21 21 20 18 15 16 16 14 13 12 11 11 10 11 9 8 5 4 4 4 4 4 5 7 7 8 5 6 6 7 6 6 7 8 8 9 10 10 10 10 11 11
17 19 19 19 20 18 15 14 13 14 13 12 11 11 9 8 6 5 4 4 4 4 4 4 5 7 7 5 5 6 6 7 6 7 7 8 8 8 9 10 10 10 10 11
20 19 18 18 18 18 18 13 14 13 10 9 9 9 11 8 6 5 6 6 6 5 4 4 5 6 6 4 4 5 6 6 7 7 8 9 7 8 8 9 9 10 10 11
18 18 19 19 18 14 18 16 14 13 12 12 10 8 8 4 3 5 4 5 6 3 3 5 5 5 4 4 5 5 5 6 7 7 8 8 8 8 8 9 9 10 10 10
19 14 13 15 14 13 12 12 10 10 10 10 7 6 7 6 6 6 5 5 4 4 3 3 3 3 4 4 5 5 5 6 7 7 8 8 8 8 9 10 9 9 10 10
14 16 13 12 10 11 11 11 10 10 9 9 9 6 7 6 5 5 5 4 3 3 3 2 3 4 4 4 4 5 5 6 6 7 7 7 8 8 8 9 9 9 9 10
Wind_Direction
137 98 157 203 193 185 193 184 200 277 218 288 318 310 315 343 27 64 73 79 89 97 103 108 106 104 105 103 103 110 113 119 107 350 303 288 285 286 295 304 313 318 311 305
120 35 213 260 253 216 230 238 256 277 283 283 20 344 351 356 13 91 92 98 106 111 111 106 104 102 99 94 86 82 68 47 25 19 353 336 333 330 328 327 328 329 331 331
230 333 329 284 232 215 187 183 178 225 261 5 338 10 5 349 100 113 116 122 121 115 107 102 94 94 86 80 74 68 61 49 38 24 9 2 356 352 353 351 343 339 337 334
152 293 246 257 180 165 197 224 216 273 290 349 94 87 34 42 113 120 126 123 115 108 100 94 91 86 85 76 69 63 54 42 27 12 3 1 2 355 346 341 335 328 323 321
158 208 310 259 186 159 181 168 171 211 274 111 143 119 52 40 96 115 114 106 102 97 92 89 86 85 80 69 62 53 38 27 15 10 6 360 352 342 335 328 325 323 320 319
162 170 226 238 194 173 169 259 173 187 294 159 166 184 102 99 109 106 103 102 99 96 92 85 78 79 75 63 52 39 26 20 26 15 357 345 338 333 330 325 321 320 319 319
147 212 281 232 162 149 159 168 147 145 130 147 131 44 126 123 107 103 103 103 97 87 83 80 77 74 67 57 46 36 35 31 8 359 346 342 332 328 326 325 322 324 323 326
114 171 260 160 105 201 141 145 138 118 113 108 119 120 121 117 113 110 106 100 94 91 82 71 63 69 66 56 46 31 16 7 357 349 342 336 335 331 331 330 327 327 327 326
194 208 239 190 109 127 157 146 151 129 135 133 130 130 127 122 118 112 106 100 98 96 88 73 66 61 63 44 28 14 3 357 350 344 342 339 336 333 332 333 334 330 330 328
164 188 212 198 173 158 167 131 132 136 141 141 132 132 125 121 117 110 104 104 104 97 88 80 68 61 54 36 18 7 357 353 348 343 341 342 337 338 335 338 336 333 330 333
258 254 271 230 199 157 119 117 122 131 140 139 133 130 127 122 117 112 109 104 97 95 91 83 70 58 42 25 11 6 356 351 351 344 345 341 342 343 338 340 341 335 332 326
211 194 181 153 165 149 140 143 141 131 129 131 133 131 127 118 118 117 111 109 101 96 93 81 65 51 33 22 13 5 355 353 355 343 343 340 339 336 340 343 339 335 334 332
175 124 77 104 122 142 135 138 133 130 133 130 127 125 121 120 115 111 110 105 102 99 93 76 56 50 26 19 7 5 356 356 349 346 344 343 339 339 338 339 336 339 340 340
133 120 93 163 151 131 126 120 114 113 118 123 123 120 119 116 117 112 108 108 107 98 81 60 50 44 17 6 4 2 354 359 348 344 340 343 343 340 338 336 337 340 345 344
159 41 116 120 122 123 125 127 121 123 126 123 122 124 125 123 119 116 118 113 104 90 71 55 46 30 11 8 3 358 353 355 347 339 347 340 337 339 337 339 337 336 337 341
112 113 127 131 135 138 137 135 127 132 131 129 126 124 120 117 118 118 117 111 102 81 66 53 48 23 7 7 356 352 351 352 344 344 343 342 343 341 341 341 338 338 339 341
123 130 138 142 147 147 146 140 132 135 134 133 128 127 124 121 119 119 113 104 91 79 57 34 38 16 10 8 353 351 342 345 348 342 346 343 345 342 342 337 339 338 336 343
107 149 166 150 147 141 136 133 132 134 134 133 132 130 125 128 130 129 124 116 106 78 46 37 31 13 10 7 355 345 345 345 344 346 340 349 344 342 341 340 339 337 336 341
132 134 136 139 137 132 131 131 132 130 133 132 127 127 127 129 131 130 120 108 94 66 38 35 23 14 9 11 352 344 350 345 347 347 345 345 345 346 341 343 339 337 339 337
119 121 124 125 128 130 128 128 129 130 132 129 119 119 122 119 117 118 116 93 73 56 37 34 13 18 7 0 350 349 350 348 350 348 353 341 350 340 340 341 338 338 338 337
127 129 128 126 124 123 124 129 130 131 132 127 130 129 125 123 118 126 131 107 72 47 56 36 32 14 3 349 341 351 353 351 348 348 348 347 342 341 340 339 339 338 335 338
132 130 126 126 122 120 126 129 122 120 121 120 117 117 119 120 106 91 61 96 88 56 51 40 28 20 0 335 352 354 355 353 347 346 348 344 342 338 336 337 338 334 336 335
130 128 123 125 125 120 114 116 119 123 127 133 134 137 136 133 137 144 133 92 89 74 69 50 32 18 355 349 354 358 354 353 350 351 342 342 335 335 333 333 332 331 332 334
125 122 119 118 119 118 118 124 126 124 124 126 121 129 133 126 105 88 103 105 102 88 63 45 31 22 341 357 2 1 355 355 354 347 339 339 335 331 333 330 329 330 330 330
120 123 124 126 124 123 128 128 121 128 128 126 127 125 122 111 129 136 120 103 102 85 71 52 34 5 360 4 11 3 354 360 355 341 341 335 332 330 330 329 327 328 325 327
129 127 128 128 129 132 132 136 134 138 133 132 127 120 106 102 111 119 109 106 101 91 64 42 21 1 1 10 10 2 354 359 356 346 336 334 331 328 327 328 326 326 325 323
113 119 118 117 123 132 136 140 139 144 142 140 132 130 124 121 115 112 105 111 98 88 67 31 16 8 354 1 5 359 356 358 355 339 335 332 332 329 327 324 322 321 321 323